Mobridge, SD

11:36 PM CDT on June 24, 2017 (GMT -0500)
Mobridge Municipal

Weather History for KMBG - January, 2003

Change the Weather History Date:

Thursday, January 9, 2003

  Actual Average Record
Temperature  
Mean Temperature 26 °F 16 °F  
Max Temperature 36 °F 25 °F 55 °F (2012)
Min Temperature 14 °F 6 °F -30 °F (1930)
Degree Days  
Heating Degree Days 39 49  
Month to date heating degree days 441  
Since 1 July heating degree days 3657  
Cooling Degree Days 0 0  
Month to date cooling degree days 0  
Year to date cooling degree days 0  
Moisture  
Dew Point 11 °F    
Average Humidity 58    
Maximum Humidity 75    
Minimum Humidity 39    
Precipitation  
Precipitation 0.00 in 0.01 in 0.20 in (2011)
Month to date precipitation 0.11  
Year to date precipitation 0.11  
Snow  
Snow 0.00 in - - ()
Month to date snowfall  
Since 1 July snowfall  
Snow Depth -    
Sea Level Pressure  
Sea Level Pressure 30.15 in    
Wind  
Wind Speed 25 mph (NW)    
Max Wind Speed 30 mph    
Max Gust Speed 37 mph    
Visibility 10 miles    
Events Snow    
T = Trace of Precipitation, MM = Missing Value Source: NWS Daily Summary

Daily Weather History Graph

Daily Weather History Graph

Search for Another Location

Airport or City:

Trip Planner

Search our weather history database for the weather conditions in past years. The results will help you decide how hot, cold, wet, or windy it might be!

Date:

Astronomy

Jan. 09, 2003 Rise Set
Actual Time 8:20 AM CST 5:16 PM CST
Civil Twilight 7:47 AM CST 5:50 PM CST
Nautical Twilight 7:10 AM CST 6:27 PM CST
Astronomical Twilight 6:34 AM CST 7:03 PM CST
Moon 12:11 PM CST (1/9) No Moon Set
Length of Visible Light 10h 03m
Length of Day
8h 55m
Waxing Crescent, 42% of the Moon is Illuminated
Jan 9
Waxing Crescent
Jan 10
First Quarter
Jan 18
Full
Jan 25
Last Quarter
Feb 1
New

Hourly Weather History & Observations

Time (CST) Temp. Windchill Dew Point Humidity Pressure Visibility Wind Dir Wind Speed Gust Speed Precip Events Conditions
12:55 AM 36.0 °F 23.2 °F 12.9 °F 39% 29.98 in 10.0 mi NNW 28.8 mph 35.7 mph N/A   Overcast
1:55 AM 32.0 °F 18.4 °F 12.9 °F 45% 30.00 in 10.0 mi NW 26.5 mph 36.8 mph N/A   Mostly Cloudy
2:55 AM 28.9 °F 15.8 °F 14.0 °F 54% 30.01 in 10.0 mi NW 20.7 mph 28.8 mph N/A   Clear
3:55 AM 28.9 °F 15.1 °F 12.9 °F 51% 30.01 in 10.0 mi NW 23.0 mph 31.1 mph N/A   Clear
4:55 AM 28.9 °F 14.8 °F 12.0 °F 49% 30.03 in 10.0 mi NW 24.2 mph 29.9 mph N/A   Clear
5:55 AM 28.9 °F 15.1 °F 12.9 °F 51% 30.04 in 10.0 mi NW 23.0 mph 29.9 mph N/A   Mostly Cloudy
6:55 AM 28.0 °F 14.9 °F 15.1 °F 58% 30.07 in 10.0 mi NW 19.6 mph 29.9 mph N/A   Scattered Clouds
7:55 AM 28.0 °F 15.3 °F 17.1 °F 63% 30.09 in 10.0 mi NNW 18.4 mph 26.5 mph N/A   Overcast
8:55 AM 28.0 °F 12.3 °F 14.0 °F 56% 30.11 in 10.0 mi NNW 29.9 mph 36.8 mph N/A   Overcast
9:55 AM 28.0 °F 13.0 °F 16.0 °F 61% 30.13 in 10.0 mi NNW 26.5 mph 33.4 mph 0.00 in   Overcast
10:55 AM 25.0 °F 11.3 °F 18.0 °F 75% 30.18 in 8.0 mi North 18.4 mph 25.3 mph 0.00 in   Overcast
11:55 AM 24.1 °F 9.0 °F 14.0 °F 65% 30.19 in 9.0 mi NNW 21.9 mph - 0.00 in   Overcast
12:55 PM 24.1 °F 7.7 °F 10.0 °F 55% 30.19 in 10.0 mi NNW 26.5 mph 32.2 mph N/A   Overcast
1:55 PM 24.1 °F 7.4 °F 10.0 °F 55% 30.17 in 10.0 mi NNW 27.6 mph 36.8 mph 0.00 in   Overcast
2:55 PM 23.0 °F 6.6 °F 9.0 °F 55% 30.20 in 10.0 mi NW 25.3 mph 31.1 mph 0.00 in   Overcast
3:55 PM 21.0 °F 5.0 °F 9.0 °F 60% 30.21 in 10.0 mi NNW 21.9 mph 29.9 mph N/A   Overcast
4:55 PM 19.9 °F 2.2 °F 7.0 °F 57% 30.22 in 10.0 mi NNW 26.5 mph 31.1 mph 0.00 in   Overcast
5:55 PM 19.9 °F 2.8 °F 10.0 °F 65% 30.23 in 5.0 mi NW 24.2 mph 31.1 mph 0.00 in Snow Light Snow
6:55 PM 19.0 °F 1.0 °F 8.1 °F 62% 30.25 in 10.0 mi NW 26.5 mph 31.1 mph 0.00 in   Overcast
7:55 PM 17.1 °F 1.0 °F 6.1 °F 62% 30.27 in 10.0 mi NNW 18.4 mph - N/A   Mostly Cloudy
8:55 PM 17.1 °F -0.6 °F 7.0 °F 65% 30.27 in 10.0 mi NW 23.0 mph 28.8 mph N/A   Overcast
9:55 PM 18.0 °F -1.1 °F 6.1 °F 60% 30.25 in 10.0 mi NW 28.8 mph 32.2 mph N/A   Overcast
10:55 PM 16.0 °F -1.3 °F 6.1 °F 65% 30.26 in 10.0 mi NW 20.7 mph 28.8 mph N/A   Partly Cloudy
11:55 PM 14.0 °F -3.9 °F 5.0 °F 67% 30.27 in 10.0 mi NW 20.7 mph 29.9 mph N/A   Clear